COSMOS 2251 DEB, 34061

Orbit data source: Space-Track

COSMOS 2251 DEB, 34061 is space debris in LEO originally from a launch on Wed, 16 Jun 1993 UTC launched from the Plesetsk Missile And Space Complex (PKMTR). The debris from Iridium 33, an American commercial communications satellite, has been tracked extensively since its accidental collision with the defunct Russian satellite Cosmos 2251 in 2009. This event, occurring at high speed in low Earth orbit (LEO), generated thousands of pieces of space debris, significantly increasing the risk of further collisions. The Iridium 33 debris cloud has impacted space traffic management and orbital debris mitigation strategies, making it a subject of ongoing study in space situational awareness.

Loading next visibility...
Identifier
34061, 1993-036JY
Orbit
LEO
Country
Flag of CISCIS
Related business
Manufacturer
Unknown
Mission
Spacecraft
Bus & Motor
Unknown
Mass
Unknown
Launch date (UTC)
1993-06-16 (33 years ago)
Launch vehicle
Unknown
Launch site
Plesetsk Missile And Space Complex (PKMTR)
Object type
Payload
Rocket body
Debris
Shape & HBR
Unknown shape, 0.1 m
Radar Cross Section
Small (<0.1 m²)

Expand to show TLE details & history
Last TLE update: 11 hours ago

TLE from 11 hours ago
0 COSMOS 2251 DEB
1 34061U 93036JY  26037.72824517  .00001564  00000-0  49833-3 0  9995
2 34061  74.0394 159.8888 0021034 230.0586 249.4812 14.40505562889865
Epoch: 2026-02-06T17:28Z
TLE epoch observation values (Epoch: 2026-02-06T17:28:40.382Z)
Latitude
57.07258°
Longitude
-85.19899°
Altitude
771.335 km
Speed
7.471 km/s
True Right ascension
20h 55m 19s
True Declination
56° 54' 57"
Sunlit
Object was in daylight at epoch
Visualization orbit readout
Latitude
Unknown
Longitude
Unknown
Altitude
Unknown
Speed
Unknown
Apparent Right ascension
Unknown
Apparent Declination
Unknown
Sunlit
N/A
Visualization observer readout
Local Sidereal Time
06:09:30
Azimuth
Unknown
Elevation
Unknown
Doppler factor
Unknown
Orbital elements
Apogee altitude
769.45 km
Perigee altitude
739.445 km
Semi-major axis
7,132.584 km
Eccentricity
0.0021
Inclination
74.0394°
RAAN
159.8888°
Arg. of periapsis
230.0586°
True anomaly
249.25567°
Mean anomaly
249.4812°
Eccentric anomaly
249.36841°
Mean motion
3.60307 °/min
Orbital period
99.91 mins
BSTAR
0.00049833
Loading maneuver chart data...
Computing Atmospheric mass density...

Documentation

Showing up to 5 results
|